Regional Weather Roundup
Issued by NWS

Home | Current Version | Previous Version | Graphics & Text | Print | Product List | Glossary On
Versions: 1 2 3 4 5 6 7 8 9 10 11 12 13 14 15 16 17 18 19 20 21 22 23 24 25 26 27 28 29 30 31 32 33 34 35 36 37 38 39 40 41 42 43 44 45 46 47 48 49 50
000
ASUS43 KTOP 280259
RWRKS

WEATHER ROUNDUP FOR KANSAS
NATIONAL WEATHER SERVICE GOODLAND KS
1000 PM CDT WED AUG 27 2014

NOTE:  "FAIR" INDICATES FEW OR NO CLOUDS BELOW 12,000 FEET WITH NO
SIGNIFICANT WEATHER AND/OR OBSTRUCTIONS TO VISIBILITY.

KSZ001>006-013>018-027>032-041>047-280400-
NORTHWEST KANSAS

CITY           SKY/WX    TMP DP  RH WIND       PRES   REMARKS
GOODLAND       PTCLDY    67  65  93 SE10      30.02S
HAYS           CLOUDY    75  66  73 W9        30.00R
HILL CITY      CLOUDY    70  68  93 NE10      30.01S
RUSSELL        CLOUDY    76  70  82 SE13      29.96S
$$

KSZ061>065-074>080-084>089-280400-
SOUTHWEST KANSAS

CITY           SKY/WX    TMP DP  RH WIND       PRES   REMARKS
DODGE CITY     MOCLDY    73  64  73 S13       30.03R
ELKHART          N/A     70  60  70 SE16        N/A
GARDEN CITY    CLEAR     70  65  84 S10G21    30.02R
GREAT BEND     CLOUDY    79  66  65 SE14      29.99S
LIBERAL        PTCLDY    72  63  73 S13       30.04S
$$

KSZ066>073-081>083-090>101-280400-
SOUTHEAST KANSAS

CITY           SKY/WX    TMP DP  RH WIND       PRES   REMARKS
CHANUTE        PTCLDY    81  67  62 E10       30.04R
COFFEYVILLE    CLEAR     83  67  58 SE5       30.01R
HUTCHINSON     CLOUDY    83  64  52 SE10      30.00S
NEWTON         CLOUDY    81  61  50 SE7       30.05S
PARSONS        MOCLDY    84  65  52 VRB3      30.04R
WICHITA INTL   CLOUDY    84  64  50 SE10      30.00R
WICHITA JABRA  CLOUDY    84  64  50 S9        30.01R
WINFIELD       MOCLDY    83  66  56 SE9       30.02R
$$

KSZ007>012-019>026-033>040-048>060-102>105-280400-
NORTHEAST KANSAS

CITY           SKY/WX    TMP DP  RH WIND       PRES   REMARKS
CONCORDIA      CLOUDY    76  72  87 E8        30.00S
EMPORIA        MOCLDY    80  71  74 E7        30.02R
LAWRENCE       CLOUDY    81  73  76 E5        30.03S
MANHATTAN      CLOUDY    81  71  71 E8        30.01R
OLATHE IND     CLOUDY    80  71  74 E8        30.05R
OLATHE EXE     CLOUDY    79  72  79 E9        30.04S
SALINA         CLOUDY    84  65  52 E7        29.98S
TOPEKA BILLARD MOCLDY    80  74  81 E6        30.03R
TOPEKA FORBES  MOCLDY    80  73  79 E8        30.03R
$$


USA.gov is the U.S. government's official web portal to all federal, state and local government web resources and services.